• In Kazakhstan
  • List of Countries
  • For 7 days
  • Water Temperature
  • Weather Map
  • News
  • Weather Widgets
  • user-avatar
    Login

    Hourly Weather Jewłach

    Today, 13 November, Wednesday

    Time Temperature Precipitation Wind Pressure Humidity
    00:00 +11°C° 0 mm 0 mps 767 mmHg 48%
    01:00 +11°C° 0 mm 0 mps 767 mmHg 49%
    02:00 +10°C° 0 mm 0 mps 767 mmHg 51%
    03:00 +10°C° 0 mm 0 mps 767 mmHg 52%
    04:00 +9°C° 0 mm 0 mps 767 mmHg 53%
    05:00 +9°C° 0 mm 0 mps 767 mmHg 55%
    06:00 +9°C° 0 mm 0 mps 767 mmHg 56%
    07:00 +11°C° 0 mm 0 mps 767 mmHg 49%
    08:00 +13°C° 0 mm 0 mps 767 mmHg 42%
    09:00 +15°C° 0 mm 1 mps 767 mmHg 36%
    10:00 +18°C° 0 mm 1 mps 767 mmHg 33%
    11:00 +19°C° 0 mm 1 mps 767 mmHg 31%
    12:00 +20°C° 0 mm 1 mps 766 mmHg 28%
    13:00 +20°C° 0 mm 1 mps 766 mmHg 28%
    14:00 +21°C° 0 mm 1 mps 766 mmHg 27%
    15:00 +21°C° 0 mm 1 mps 766 mmHg 27%
    16:00 +19°C° 0 mm 1 mps 766 mmHg 31%
    17:00 +16°C° 0 mm 1 mps 766 mmHg 36%
    18:00 +15°C° 0 mm 1 mps 766 mmHg 40%
    19:00 +14°C° 0 mm 1 mps 767 mmHg 41%
    20:00 +14°C° 0 mm 1 mps 767 mmHg 43%
    21:00 +13°C° 0 mm 1 mps 767 mmHg 44%
    22:00 +13°C° 0 mm 1 mps 767 mmHg 51%
    23:00 +12°C° 0 mm 1 mps 767 mmHg 57%

    Tomorrow, 14 November, Thursday

    Time Temperature Precipitation Wind Pressure Humidity
    00:00 +12°C° 0 mm 2 mps 767 mmHg 63%
    01:00 +11°C° 0 mm 1 mps 766 mmHg 71%
    02:00 +11°C° 0 mm 1 mps 766 mmHg 78%
    03:00 +10°C° 0 mm 1 mps 766 mmHg 85%
    04:00 +9°C° 0 mm 0 mps 766 mmHg 85%
    05:00 +9°C° 0 mm 0 mps 766 mmHg 86%
    06:00 +8°C° 0 mm 0 mps 766 mmHg 87%
    07:00 +10°C° 0 mm 0 mps 766 mmHg 82%
    08:00 +12°C° 0 mm 1 mps 766 mmHg 77%
    09:00 +14°C° 0 mm 1 mps 767 mmHg 71%
    10:00 +15°C° 0 mm 1 mps 766 mmHg 66%
    11:00 +16°C° 0 mm 2 mps 766 mmHg 61%
    12:00 +18°C° 0 mm 2 mps 766 mmHg 55%
    13:00 +18°C° 0 mm 2 mps 766 mmHg 52%
    14:00 +19°C° 0 mm 3 mps 766 mmHg 49%
    15:00 +19°C° 0 mm 3 mps 765 mmHg 45%
    16:00 +17°C° 0 mm 3 mps 766 mmHg 53%
    17:00 +16°C° 0 mm 3 mps 766 mmHg 60%
    18:00 +13°C° 0 mm 3 mps 767 mmHg 67%
    19:00 +13°C° 0 mm 3 mps 767 mmHg 69%
    20:00 +13°C° 0 mm 4 mps 767 mmHg 70%
    21:00 +12°C° 0 mm 4 mps 768 mmHg 71%
    22:00 +12°C° 0 mm 3 mps 768 mmHg 72%
    23:00 +12°C° 0 mm 3 mps 768 mmHg 72%

    Day after tomorrow, 15 November, Friday

    Time Temperature Precipitation Wind Pressure Humidity
    00:00 +11°C° 0 mm 3 mps 768 mmHg 73%
    01:00 +11°C° 0 mm 3 mps 767 mmHg 74%
    02:00 +10°C° 0 mm 3 mps 767 mmHg 75%
    03:00 +10°C° 0 mm 3 mps 767 mmHg 76%
    04:00 +9°C° 0 mm 3 mps 767 mmHg 74%
    05:00 +9°C° 0 mm 3 mps 767 mmHg 72%
    06:00 +9°C° 0 mm 3 mps 767 mmHg 70%
    07:00 +10°C° 0 mm 4 mps 768 mmHg 67%
    08:00 +10°C° 0 mm 4 mps 768 mmHg 64%
    09:00 +10°C° 0 mm 5 mps 768 mmHg 60%
    10:00 +10°C° 0 mm 5 mps 768 mmHg 60%
    11:00 +10°C° 0 mm 5 mps 768 mmHg 59%
    12:00 +11°C° 0 mm 6 mps 768 mmHg 58%
    13:00 +10°C° 0 mm 4 mps 768 mmHg 64%
    14:00 +11°C° 0 mm 4 mps 768 mmHg 64%
    15:00 +11°C° 0 mm 3 mps 768 mmHg 64%
    16:00 +10°C° 0 mm 3 mps 769 mmHg 65%
    17:00 +10°C° 0 mm 2 mps 769 mmHg 66%
    18:00 +10°C° 0 mm 2 mps 769 mmHg 66%
    19:00 +9°C° 0 mm 3 mps 770 mmHg 68%
    20:00 +8°C° 0 mm 4 mps 770 mmHg 70%
    21:00 +8°C° 0 mm 5 mps 771 mmHg 71%
    22:00 +8°C° 0 mm 4 mps 771 mmHg 71%
    23:00 +8°C° 0 mm 4 mps 771 mmHg 71%

    16 November, Saturday

    Time Temperature Precipitation Wind Pressure Humidity
    00:00 +8°C° 0 mm 4 mps 771 mmHg 70%
    01:00 +8°C° 0 mm 4 mps 771 mmHg 71%
    02:00 +9°C° 0 mm 3 mps 771 mmHg 72%
    03:00 +9°C° 0 mm 3 mps 771 mmHg 73%
    04:00 +8°C° 0 mm 3 mps 771 mmHg 74%
    05:00 +8°C° 0 mm 3 mps 771 mmHg 76%
    06:00 +7°C° 0 mm 3 mps 771 mmHg 78%
    07:00 +7°C° 0 mm 4 mps 771 mmHg 73%
    08:00 +8°C° 0 mm 5 mps 772 mmHg 68%
    09:00 +9°C° 0 mm 5 mps 772 mmHg 64%
    10:00 +10°C° 0 mm 5 mps 772 mmHg 59%
    11:00 +12°C° 0 mm 4 mps 771 mmHg 54%
    12:00 +12°C° 0 mm 4 mps 771 mmHg 49%
    13:00 +13°C° 0 mm 4 mps 771 mmHg 47%
    14:00 +13°C° 0 mm 4 mps 771 mmHg 45%
    15:00 +13°C° 0 mm 4 mps 771 mmHg 43%
    16:00 +12°C° 0 mm 3 mps 771 mmHg 47%
    17:00 +11°C° 0 mm 3 mps 771 mmHg 50%
    18:00 +10°C° 0 mm 2 mps 772 mmHg 53%
    19:00 +10°C° 0 mm 2 mps 772 mmHg 54%
    20:00 +10°C° 0 mm 2 mps 772 mmHg 54%
    21:00 +9°C° 0 mm 2 mps 772 mmHg 55%
    22:00 +9°C° 0 mm 2 mps 772 mmHg 59%
    23:00 +8°C° 0 mm 2 mps 772 mmHg 64%

    17 November, Sunday

    Time Temperature Precipitation Wind Pressure Humidity
    00:00 +7°C° 0 mm 2 mps 772 mmHg 69%
    01:00 +7°C° 0 mm 2 mps 772 mmHg 69%
    02:00 +8°C° 0 mm 1 mps 772 mmHg 70%
    03:00 +8°C° 0 mm 1 mps 772 mmHg 70%
    04:00 +8°C° 0 mm 1 mps 772 mmHg 72%
    05:00 +7°C° 0 mm 1 mps 772 mmHg 73%
    06:00 +7°C° 0 mm 1 mps 772 mmHg 75%
    07:00 +8°C° 0 mm 1 mps 772 mmHg 69%
    08:00 +9°C° 0 mm 1 mps 772 mmHg 63%
    09:00 +11°C° 0 mm 1 mps 773 mmHg 58%
    10:00 +12°C° 0 mm 1 mps 772 mmHg 54%
    11:00 +13°C° 0 mm 2 mps 772 mmHg 51%
    12:00 +14°C° 0 mm 2 mps 771 mmHg 47%
    13:00 +14°C° 0 mm 2 mps 771 mmHg 47%
    14:00 +15°C° 0 mm 2 mps 771 mmHg 47%
    15:00 +15°C° 0 mm 2 mps 770 mmHg 48%
    16:00 +14°C° 0 mm 2 mps 771 mmHg 54%
    17:00 +12°C° 0 mm 2 mps 771 mmHg 60%
    18:00 +11°C° 0 mm 1 mps 771 mmHg 66%
    19:00 +11°C° 0 mm 1 mps 771 mmHg 65%
    20:00 +12°C° 0 mm 1 mps 771 mmHg 64%
    21:00 +12°C° 0 mm 1 mps 771 mmHg 63%
    22:00 +12°C° 0 mm 1 mps 771 mmHg 63%
    23:00 +11°C° 0 mm 0 mps 771 mmHg 63%

    18 November, Monday

    Time Temperature Precipitation Wind Pressure Humidity
    00:00 +11°C° 0 mm 0 mps 771 mmHg 63%
    01:00 +10°C° 0 mm 0 mps 771 mmHg 65%
    02:00 +9°C° 0 mm 0 mps 770 mmHg 68%
    03:00 +8°C° 0 mm 0 mps 770 mmHg 70%
    04:00 +9°C° 0 mm 1 mps 770 mmHg 71%
    05:00 +9°C° 0 mm 1 mps 770 mmHg 71%
    06:00 +8°C° 0 mm 2 mps 770 mmHg 71%
    07:00 +9°C° 0 mm 2 mps 770 mmHg 67%
    08:00 +11°C° 0 mm 1 mps 770 mmHg 62%
    09:00 +12°C° 0 mm 1 mps 770 mmHg 57%
    10:00 +13°C° 0 mm 1 mps 769 mmHg 54%
    11:00 +14°C° 0 mm 1 mps 769 mmHg 52%
    12:00 +14°C° 0 mm 0 mps 768 mmHg 49%
    13:00 +16°C° 0 mm 1 mps 768 mmHg 48%
    14:00 +16°C° 0 mm 1 mps 767 mmHg 48%
    15:00 +16°C° 0 mm 1 mps 767 mmHg 47%
    16:00 +15°C° 0 mm 1 mps 767 mmHg 52%
    17:00 +14°C° 0 mm 1 mps 767 mmHg 57%
    18:00 +12°C° 0 mm 1 mps 767 mmHg 61%
    19:00 +12°C° 0 mm 1 mps 767 mmHg 63%
    20:00 +11°C° 0 mm 1 mps 767 mmHg 65%
    21:00 +11°C° 0 mm 1 mps 767 mmHg 67%
    22:00 +11°C° 0 mm 1 mps 767 mmHg 68%
    23:00 +10°C° 0 mm 1 mps 767 mmHg 68%
    Show more